Buena Park, CA

4:16 AM PST on February 09, 2016 (GMT -0800)
Fullerton Municipal

Weather History for KFUL - May, 2014

Change the Weather History Date:

Wednesday, May 14, 2014

  Actual Average Record
Temperature  
Mean Temperature 83 °F 66 °F  
Max Temperature 103 °F 75 °F 103 °F (2014)
Min Temperature 63 °F 58 °F 53 °F (2000)
Degree Days  
Heating Degree Days 0 1  
Month to date heating degree days 2 19  
Since 1 July heating degree days 591 1213  
Cooling Degree Days 18 2  
Month to date cooling degree days 98 28  
Year to date cooling degree days 245 80  
Growing Degree Days 33 (Base 50)    
Moisture  
Dew Point 26 °F    
Average Humidity 19    
Maximum Humidity 34    
Minimum Humidity 4    
Precipitation  
Precipitation 0.00 in 0.00 in 0.45 in (1951)
Month to date precipitation 0.00 0.19  
Year to date precipitation 3.46 9.50  
Since 1 July precipitation 4.77  
Snow  
Snow 0.00 in - - ()
Month to date snowfall 0.0  
Year to date snowfall 0.0  
Since 1 July snowfall 0.0  
Snow Depth 0.00 in    
Sea Level Pressure  
Sea Level Pressure 29.98 in    
Wind  
Wind Speed 7 mph (NE)    
Max Wind Speed 24 mph    
Max Gust Speed 31 mph    
Visibility 10 miles    
Events      
T = Trace of Precipitation, MM = Missing Value Source: NWS Daily Summary

Daily Weather History Graph

Daily Weather History Graph

Search for Another Location

Airport or City:

Trip Planner

Search our weather history database for the weather conditions in past years. The results will help you decide how hot, cold, wet, or windy it might be!

Date:

Astronomy

May. 14, 2014 Rise Set
Actual Time 5:51 AM PDT 7:45 PM PDT
Civil Twilight 5:23 AM PDT 8:13 PM PDT
Nautical Twilight 4:50 AM PDT 8:46 PM PDT
Astronomical Twilight 4:15 AM PDT 9:22 PM PDT
Moon 7:57 PM PDT (5/14) 5:51 AM PDT (5/14)
Length of Visible Light 14h 49m
Length of Day
13h 54m
Full, 100% of the Moon is Illuminated
May 14
Full
May 14
Full
May 21
Last Quarter
May 28
New
Jun 5
First Quarter

Hourly Weather History & Observations

Time (PDT) Temp. Dew Point Humidity Pressure Visibility Wind Dir Wind Speed Gust Speed Precip Events Conditions
12:53 AM 71.1 °F 36.0 °F 28% 30.03 in 10.0 mi Variable 5.8 mph - N/A   Clear
1:53 AM 70.0 °F 32.0 °F 25% 30.02 in 10.0 mi Calm Calm - N/A   Clear
2:53 AM 69.1 °F 32.0 °F 25% 30.01 in 10.0 mi North 4.6 mph - N/A   Clear
3:53 AM 66.9 °F 28.9 °F 24% 30.01 in 10.0 mi South 5.8 mph - N/A   Clear
4:53 AM 64.9 °F 33.1 °F 31% 30.01 in 10.0 mi Calm Calm - N/A   Clear
5:53 AM 64.9 °F 35.1 °F 33% 30.01 in 10.0 mi NNW 3.5 mph - N/A   Clear
6:53 AM 69.1 °F 34.0 °F 27% 30.02 in 10.0 mi NNW 3.5 mph - N/A   Clear
8:53 AM 87.1 °F 30.0 °F 13% 30.02 in 10.0 mi Calm Calm - N/A   Clear
9:53 AM 93.0 °F 17.1 °F 6% 30.02 in 10.0 mi East 10.4 mph 18.4 mph N/A   Clear
10:53 AM 96.1 °F 14.0 °F 5% 30.01 in 8.0 mi ENE 12.7 mph 31.1 mph N/A   Clear
11:53 AM 98.1 °F 14.0 °F 5% 29.99 in 10.0 mi NE 16.1 mph 29.9 mph N/A   Clear
12:53 PM 99.0 °F 18.0 °F 5% 29.98 in 10.0 mi East 13.8 mph 24.2 mph N/A   Clear
1:53 PM 100.9 °F 18.0 °F 5% 29.96 in 10.0 mi East 19.6 mph 26.5 mph N/A   Clear
2:53 PM 102.9 °F 17.1 °F 5% 29.94 in 10.0 mi East 9.2 mph 18.4 mph N/A   Clear
3:53 PM 102.0 °F 15.1 °F 4% 29.92 in 10.0 mi ESE 5.8 mph 19.6 mph N/A   Clear
4:53 PM 99.0 °F 21.9 °F 6% 29.92 in 10.0 mi WNW 9.2 mph - N/A   Clear
5:53 PM 95.0 °F 19.9 °F 7% 29.91 in 10.0 mi WNW 10.4 mph - N/A   Clear
6:53 PM 93.0 °F 21.9 °F 8% 29.92 in 10.0 mi West 5.8 mph - N/A   Clear
8:53 PM 86.0 °F 28.9 °F 13% 29.96 in 10.0 mi Calm Calm - N/A   Clear
9:53 PM 81.0 °F 36.0 °F 20% 29.98 in 10.0 mi ENE 3.5 mph - N/A   Clear
10:53 PM 78.1 °F 37.0 °F 23% 29.99 in 10.0 mi East 4.6 mph - N/A   Clear
11:53 PM 73.9 °F 41.0 °F 30% 29.98 in 10.0 mi Calm Calm - N/A   Clear